Regional Weather Roundup
Issued by NWS Northern Indiana

Home | Current Version | Previous Version | Graphics & Text | Print | Product List | Glossary On
Versions: 1 2 3 4 5 6 7 8 9 10 11 12 13 14 15 16 17 18 19 20 21 22 23 24 25 26 27 28 29 30 31 32 33 34 35 36 37 38 39 40 41 42 43 44 45 46 47 48 49 50
000
ASUS43 KIWX 221601
RWRIWX

KIWX WEATHER ROUNDUP
NATIONAL WEATHER SERVICE NORTHERN INDIANA
1200 PM EDT SUN OCT 22 2017

NOTE: "FAIR" INDICATES FEW OR NO CLOUDS BELOW 12,000 FEET WITH NO
SIGNIFICANT WEATHER AND/OR OBSTRUCTIONS TO VISIBILITY.

* THESE STATIONS ARE NOT UNDER NWS QUALITY CONTROL. THEY ALSO MAY NOT
  REPORT WEATHER SUCH AS PRECIPITATION OR FOG.

INZ001>027-221700-
NORTHERN INDIANA

CITY           SKY/WX    TMP DP  RH WIND       PRES   REMARKS
GARY*          CLOUDY    70  57  64 S16G28    29.98S
SOUTH BEND     CLOUDY    68  58  70 S15G24    30.04S
ELKHART*       MOSUNNY   70  55  60 S12G18    30.05F
GOSHEN         PTSUNNY   70  55  59 S15       30.07R
MONTICELLO*    CLOUDY    68  56  64 S14G23    30.04S
FORT WAYNE     MOSUNNY   72  54  53 S24G31    30.11F
PERU/GRISSOM   CLOUDY    72  56  57 S17G26    30.08S

$$
INZ028>050-221700-
CENTRAL INDIANA

CITY           SKY/WX    TMP DP  RH WIND       PRES   REMARKS
LAFAYETTE      CLOUDY    69  58  67 S10       30.04S
KOKOMO*        MOSUNNY   71  55  56 S17G25    30.10F
MUNCIE*        MOSUNNY   74  52  46 S17       30.13F
INDIANAPOLIS   CLOUDY    72  57  59 S17       30.10F

$$
MIZ043>046-050>051-056>058-064>065-071>073-077>080-221700-
SOUTHWEST LOWER MICHIGAN

CITY           SKY/WX    TMP DP  RH WIND       PRES   REMARKS
BATTLE CREEK   SUNNY     70  56  61 S16       30.07F
BENTON HARBOR  MOSUNNY   71  57  61 S16G23    30.01S
COLDWATER*     PTSUNNY   70  53  55 S9G20     30.09S
HILLSDALE*     SUNNY     70  54  56 S14       30.11F
HOLLAND        CLOUDY    74  58  57 S16G24    30.00F
GRAND RAPIDS   PTSUNNY   70  56  61 S15       30.03S
KALAMAZOO      SUNNY     70  54  56 S17       30.06S
STURGIS*       CLOUDY    71  57  61 S13G23    30.07S
THREE RIVERS*  FAIR      71  56  59 S16G26    30.07S

$$
OHZ001>008-015>018-024>025-221700-
NORTHWEST OHIO

CITY           SKY/WX    TMP DP  RH WIND       PRES   REMARKS
DEFIANCE       SUNNY     72  54  53 S17G24    30.13F
FINDLAY        MOSUNNY   74  53  48 S21G28    30.17F
TOLEDO EXPRESS SUNNY     71  56  58 S12G18    30.15F
TOLEDO METCALF SUNNY     72  54  53 S14       30.17F
LIMA           MOSUNNY   72  53  51 S18G29    30.17S

$$
AND FOR LAKE MICHIGAN COASTAL AND OPEN LAKE BUOY OBSERVATIONS

STATION/POSITION TEMP    WIND        PRES    VSBY  WAVE
                 AIR SEA DIR/SP/G                  HT/PER
                 (F)     (DEG/KT/KT) (MB)    (MI)  (FT/S)
CALUMET HARBOR    68     170/ 11/ 16 1014.0R
MICHIGAN CITY     68     170/ 19/ 25   N/A
BURNS HARBOR      70     180/ 18/ 25 1015.9R
SAINT JOSEPH      69     180/  6/ 14 1016.3
SOUTH LAKE BUOY   63 61  150/ 19/ 21 1014.2          4/ 5
4 MI NW BRIDGMAN  66 59  180/ 16/ 21 1016.1R         3/ 4
MICHIGAN CITY     66 58  180/ 17/ 23   N/A           3/ 3

$$
&&




USA.gov is the U.S. government's official web portal to all federal, state and local government web resources and services.